sat.trackr.live / text

‹ back to catalog

HAWK-3A

NORAD 48957 · 2021-059CG

PAYLOAD ACTIVE UNKNOWN

§ Identity

Operator
Country
US
Launch date
2021-06-30
Launch site
AFETR
Launch vehicle
Mass (kg)
RCS (m²)

Purposes: tech_demo

External: N2YO · Heavens-Above · Gunter

§ Orbital elements

Epoch: 2026-09-09T11:32:05.925696Z

Period
91.32 min
Inclination
97.6613°
Eccentricity
0.0004194
Mean motion
15.76915666 rev/d
Perigee alt
336.4 km
Apogee alt
342.0 km
Semi-major
6,717.3 km
B*
3.0374e-4
RAAN
100.5683°
Arg perigee
30.7849°
Mean anomaly
329.3661°
Rev number
29,110

§ Raw data

HAWK-3A1 48957U 21059CG  26252.48062414  .00049012  00000+0  30374-3 0  99912 48957  97.6613 100.5683 0004194  30.7849 329.3661 15.76915666291104

JSON: /api/v1/satellites/48957 · /tle

For live sub-satellite position, see the globe view (requires WebGL).

§ Visibility from observer

Set your observer location to see the next 7 days of passes ≥ 10°. The values pass through the URL so the page stays shareable.

No JS? Fill the form by hand. The geolocation button needs JavaScript.